When you browse on this site, cookies collect data to enhance your experience and personalize the content and advertising you see.
Visit our Privacy Policy to learn more. By continuing to use the site, you agree to this use of cookies and data.
  • In Romania
  • List of Countries
  • For 7 days
  • Water Temperature
  • Satellite Maps
  • Weather Map
  • Weather Widgets
  • user-avatar
    Login

    Hourly Weather Rauhala

    Today, 20 February, Wednesday

    Time Temperature Precipitation Wind Pressure Humidity
    00:00 0°C° 0.4 mm 3 mps 738 mmHg 95%
    01:00 0°C° 0.4 mm 3 mps 738 mmHg 95%
    02:00 -1°C° 0 mm 4 mps 737 mmHg 95%
    03:00 -1°C° 0.1 mm 4 mps 737 mmHg 95%
    04:00 -1°C° 0.1 mm 4 mps 737 mmHg 95%
    05:00 0°C° 0.1 mm 3 mps 737 mmHg 95%
    06:00 0°C° 0 mm 3 mps 736 mmHg 95%
    07:00 0°C° 0 mm 3 mps 736 mmHg 95%
    08:00 -1°C° 0 mm 4 mps 736 mmHg 95%
    09:00 0°C° 0.1 mm 3 mps 736 mmHg 96%
    10:00 0°C° 0.1 mm 3 mps 736 mmHg 96%
    11:00 0°C° 0.1 mm 3 mps 736 mmHg 96%
    12:00 0°C° 0.2 mm 3 mps 737 mmHg 95%
    13:00 0°C° 0.2 mm 3 mps 737 mmHg 94%
    14:00 -1°C° 0.2 mm 4 mps 737 mmHg 92%
    15:00 -2°C° 0.1 mm 5 mps 738 mmHg 90%
    16:00 -5°C° 0.1 mm 5 mps 738 mmHg 88%
    17:00 -8°C° 0.1 mm 6 mps 739 mmHg 86%
    18:00 -8°C° 0.1 mm 7 mps 740 mmHg 85%
    19:00 -8°C° 0.1 mm 7 mps 740 mmHg 85%
    20:00 -8°C° 0.1 mm 8 mps 741 mmHg 85%
    21:00 -10°C° 0.3 mm 8 mps 742 mmHg 83%
    22:00 -10°C° 0.3 mm 9 mps 744 mmHg 82%
    23:00 -11°C° 0.3 mm 9 mps 745 mmHg 81%

    Tomorrow, 21 February, Thursday

    Time Temperature Precipitation Wind Pressure Humidity
    00:00 -11°C° 0.2 mm 9 mps 747 mmHg 79%
    01:00 -12°C° 0.2 mm 9 mps 748 mmHg 77%
    02:00 -12°C° 0.2 mm 9 mps 750 mmHg 75%
    03:00 -12°C° 0 mm 8 mps 751 mmHg 75%
    04:00 -13°C° 0 mm 8 mps 752 mmHg 76%
    05:00 -13°C° 0 mm 7 mps 754 mmHg 76%
    06:00 -14°C° 0 mm 7 mps 755 mmHg 78%
    07:00 -15°C° 0 mm 7 mps 756 mmHg 80%
    08:00 -15°C° 0 mm 6 mps 757 mmHg 83%
    09:00 -15°C° 0 mm 6 mps 758 mmHg 81%
    10:00 -15°C° 0 mm 6 mps 759 mmHg 80%
    11:00 -14°C° 0 mm 6 mps 759 mmHg 78%
    12:00 -13°C° 0 mm 5 mps 760 mmHg 78%
    13:00 -13°C° 0 mm 5 mps 760 mmHg 77%
    14:00 -12°C° 0 mm 5 mps 761 mmHg 77%
    15:00 -13°C° 0 mm 5 mps 761 mmHg 80%
    16:00 -14°C° 0 mm 5 mps 762 mmHg 82%
    17:00 -14°C° 0 mm 4 mps 763 mmHg 84%
    18:00 -15°C° 0 mm 4 mps 763 mmHg 86%
    19:00 -15°C° 0 mm 4 mps 764 mmHg 87%
    20:00 -15°C° 0 mm 4 mps 765 mmHg 88%
    21:00 -15°C° 0 mm 4 mps 765 mmHg 89%
    22:00 -16°C° 0 mm 4 mps 766 mmHg 89%
    23:00 -16°C° 0 mm 4 mps 766 mmHg 90%

    Day after tomorrow, 22 February, Friday

    Time Temperature Precipitation Wind Pressure Humidity
    00:00 -17°C° 0 mm 5 mps 767 mmHg 90%
    01:00 -18°C° 0 mm 5 mps 768 mmHg 89%
    02:00 -18°C° 0 mm 5 mps 768 mmHg 89%
    03:00 -18°C° 0 mm 5 mps 769 mmHg 89%
    04:00 -18°C° 0 mm 5 mps 769 mmHg 88%
    05:00 -18°C° 0 mm 5 mps 770 mmHg 88%
    06:00 -19°C° 0 mm 5 mps 771 mmHg 87%
    07:00 -19°C° 0 mm 5 mps 771 mmHg 86%
    08:00 -19°C° 0 mm 5 mps 772 mmHg 86%
    09:00 -17°C° 0 mm 4 mps 772 mmHg 84%
    10:00 -16°C° 0 mm 4 mps 773 mmHg 83%
    11:00 -15°C° 0 mm 4 mps 773 mmHg 81%
    12:00 -14°C° 0 mm 4 mps 774 mmHg 80%
    13:00 -14°C° 0 mm 4 mps 774 mmHg 79%
    14:00 -12°C° 0 mm 4 mps 774 mmHg 79%
    15:00 -12°C° 0 mm 4 mps 774 mmHg 81%
    16:00 -14°C° 0 mm 4 mps 775 mmHg 83%
    17:00 -14°C° 0 mm 3 mps 775 mmHg 86%
    18:00 -15°C° 0 mm 3 mps 775 mmHg 87%
    19:00 -15°C° 0 mm 3 mps 776 mmHg 88%
    20:00 -15°C° 0 mm 2 mps 776 mmHg 89%
    21:00 -15°C° 0 mm 2 mps 776 mmHg 88%
    22:00 -13°C° 0 mm 1 mps 776 mmHg 87%
    23:00 -14°C° 0 mm 1 mps 776 mmHg 86%

    23 February, Saturday

    Time Temperature Precipitation Wind Pressure Humidity
    00:00 -13°C° 0 mm 1 mps 776 mmHg 84%
    01:00 -13°C° 0 mm 1 mps 775 mmHg 83%
    02:00 -13°C° 0 mm 1 mps 775 mmHg 82%
    03:00 -14°C° 0 mm 2 mps 774 mmHg 80%
    04:00 -13°C° 0 mm 2 mps 774 mmHg 77%
    05:00 -13°C° 0 mm 3 mps 773 mmHg 75%
    06:00 -12°C° 0 mm 4 mps 772 mmHg 76%
    07:00 -12°C° 0 mm 4 mps 772 mmHg 77%
    08:00 -11°C° 0 mm 4 mps 771 mmHg 79%
    09:00 -12°C° 0.2 mm 5 mps 770 mmHg 81%
    10:00 -11°C° 0.2 mm 5 mps 769 mmHg 84%
    11:00 -10°C° 0.2 mm 6 mps 768 mmHg 87%
    12:00 -9°C° 0.1 mm 6 mps 767 mmHg 87%
    13:00 -8°C° 0.1 mm 6 mps 767 mmHg 88%
    14:00 -5°C° 0.1 mm 6 mps 766 mmHg 88%
    15:00 -5°C° 0.4 mm 6 mps 765 mmHg 89%
    16:00 -4°C° 0.4 mm 5 mps 764 mmHg 90%
    17:00 -4°C° 0.4 mm 5 mps 764 mmHg 92%
    18:00 -2°C° 0.1 mm 5 mps 764 mmHg 92%
    19:00 -1°C° 0.1 mm 5 mps 764 mmHg 93%
    20:00 0°C° 0.1 mm 5 mps 764 mmHg 94%
    21:00 0°C° 0 mm 4 mps 764 mmHg 94%
    22:00 0°C° 0 mm 3 mps 764 mmHg 94%
    23:00 -1°C° 0 mm 3 mps 765 mmHg 94%

    24 February, Sunday

    Time Temperature Precipitation Wind Pressure Humidity
    00:00 -2°C° 0 mm 3 mps 765 mmHg 95%
    01:00 -3°C° 0 mm 2 mps 765 mmHg 95%
    02:00 -4°C° 0 mm 2 mps 766 mmHg 96%
    03:00 -4°C° 0 mm 2 mps 766 mmHg 96%
    04:00 -5°C° 0 mm 2 mps 766 mmHg 95%
    05:00 -5°C° 0 mm 2 mps 766 mmHg 95%
    06:00 -5°C° 0 mm 2 mps 766 mmHg 94%
    07:00 -5°C° 0 mm 2 mps 766 mmHg 93%
    08:00 -5°C° 0 mm 2 mps 766 mmHg 92%
    09:00 -4°C° 0 mm 2 mps 766 mmHg 91%
    10:00 0°C° 0 mm 1 mps 766 mmHg 90%
    11:00 +1°C° 0 mm 1 mps 766 mmHg 88%
    12:00 -1°C° 0 mm 2 mps 766 mmHg 89%
    13:00 +1°C° 0 mm 2 mps 765 mmHg 90%
    14:00 +1°C° 0 mm 2 mps 765 mmHg 91%
    15:00 +1°C° 0 mm 2 mps 765 mmHg 92%
    16:00 -1°C° 0 mm 3 mps 764 mmHg 93%
    17:00 -1°C° 0 mm 3 mps 764 mmHg 94%
    18:00 -1°C° 0 mm 3 mps 763 mmHg 95%
    19:00 0°C° 0 mm 3 mps 763 mmHg 96%
    20:00 0°C° 0 mm 3 mps 762 mmHg 97%
    21:00 0°C° 0 mm 3 mps 762 mmHg 97%
    22:00 0°C° 0 mm 3 mps 762 mmHg 96%
    23:00 +1°C° 0 mm 3 mps 761 mmHg 95%

    25 February, Monday

    Time Temperature Precipitation Wind Pressure Humidity
    00:00 0°C° 0.4 mm 4 mps 761 mmHg 94%
    01:00 0°C° 0.4 mm 4 mps 760 mmHg 94%
    02:00 0°C° 0.4 mm 5 mps 760 mmHg 93%
    03:00 -1°C° 0 mm 5 mps 760 mmHg 89%
    04:00 -1°C° 0 mm 5 mps 760 mmHg 85%
    05:00 -3°C° 0 mm 6 mps 760 mmHg 80%
    06:00 -3°C° 0 mm 6 mps 760 mmHg 80%
    07:00 -4°C° 0 mm 6 mps 760 mmHg 79%
    08:00 -4°C° 0 mm 6 mps 760 mmHg 78%
    09:00 -3°C° 0 mm 6 mps 760 mmHg 76%
    10:00 -2°C° 0 mm 6 mps 759 mmHg 75%
    11:00 -1°C° 0 mm 6 mps 759 mmHg 73%
    12:00 -1°C° 0 mm 7 mps 758 mmHg 72%
    13:00 -1°C° 0 mm 7 mps 758 mmHg 71%
    14:00 0°C° 0 mm 7 mps 758 mmHg 71%
    15:00 -1°C° 0 mm 7 mps 757 mmHg 70%
    16:00 -1°C° 0 mm 7 mps 757 mmHg 69%
    17:00 -2°C° 0 mm 7 mps 757 mmHg 68%
    18:00 -2°C° 0 mm 7 mps 757 mmHg 69%
    19:00 -2°C° 0 mm 7 mps 758 mmHg 70%
    20:00 -3°C° 0 mm 7 mps 758 mmHg 71%
    21:00 -3°C° 0 mm 7 mps 758 mmHg 73%
    22:00 -3°C° 0 mm 6 mps 758 mmHg 74%
    23:00 -3°C° 0 mm 6 mps 758 mmHg 76%
    Show more